Tillbaka till svenska Fidonet
English   Information   Debug  
FILM   0/18
FNEWS_PUBLISH   4926
FN_SYSOP   42201
FN_SYSOP_OLD1   71952
FTP_FIDO   0/2
FTSC_PUBLIC   0/13972
FUNNY   0/4886
GENEALOGY.EUR   0/71
GET_INFO   105
GOLDED   0/408
HAM   7112/16660
HOLYSMOKE   0/6791
HOT_SITES   0/1
HTMLEDIT   0/71
HUB203   466
HUB_100   264
HUB_400   39
HUMOR   0/29
IC   0/2851
INTERNET   0/424
INTERUSER   0/3
IP_CONNECT   719
JAMNNTPD   0/233
JAMTLAND   0/47
KATTY_KORNER   0/41
LAN   0/16
LINUX-USER   0/19
LINUXHELP   0/1155
LINUX   0/22300
LINUX_BBS   0/957
mail   18.68
mail_fore_ok   249
MENSA   0/341
MODERATOR   0/102
MONTE   0/992
MOSCOW_OKLAHOMA   0/1245
MUFFIN   0/783
MUSIC   0/321
N203_STAT   938
N203_SYSCHAT   313
NET203   321
NET204   69
NET_DEV   0/10
NORD.ADMIN   0/101
NORD.CHAT   0/2572
NORD.FIDONET   189
NORD.HARDWARE   0/28
NORD.KULTUR   0/114
NORD.PROG   0/32
NORD.SOFTWARE   0/88
NORD.TEKNIK   0/58
NORD   0/453
OCCULT_CHAT   0/93
OS2BBS   0/787
OS2DOSBBS   0/580
OS2HW   0/42
OS2INET   0/37
OS2LAN   0/134
OS2PROG   0/36
OS2REXX   0/113
OS2USER-L   207
OS2   0/4830
OSDEBATE   4044/18996
PASCAL   0/490
PERL   0/457
PHP   0/45
POINTS   0/405
POLITICS   0/29554
POL_INC   0/14731
PSION   103
R20_ADMIN   1133
R20_AMATORRADIO   0/2
R20_BEST_OF_FIDONET   16
R20_CHAT   0/896
R20_DEPP   0/3
R20_DEV   400
R20_ECHO2   1830
R20_ECHOPRES   0/35
R20_ESTAT   0/719
R20_FIDONETPROG...
...RAM.MYPOINT
  0/2
R20_FIDONETPROGRAM   0/22
R20_FIDONET   0/248
R20_FILEFIND   0/24
R20_FILEFOUND   0/22
R20_HIFI   0/3
R20_INFO2   3723
R20_INTERNET   0/12940
R20_INTRESSE   0/60
R20_INTR_KOM   0/99
R20_KANDIDAT.CHAT   42
R20_KANDIDAT   28
R20_KOM_DEV   112
R20_KONTROLL   0/13360
R20_KORSET   0/18
R20_LOKALTRAFIK   0/24
R20_MODERATOR   0/1852
R20_NC   76
R20_NET200   245
R20_NETWORK.OTH...
...ERNETS
  0/13
R20_OPERATIVSYS...
...TEM.LINUX
  0/44
R20_PROGRAMVAROR   0/1
R20_REC2NEC   534
R20_SFOSM   0/341
R20_SF   0/108
R20_SPRAK.ENGLISH   0/1
R20_SQUISH   107
R20_TEST   2
R20_WORST_OF_FIDONET   20
RAR   0/9
RA_MULTI   106
RA_UTIL   0/162
REGCON.EUR   0/2068
REGCON   0/13
SCIENCE   0/1206
SF   0/239
SHAREWARE_SUPPORT   0/5146
SHAREWRE   0/14
SIMPSONS   0/169
STATS_OLD1   0/2539.065
STATS_OLD2   0/2530
STATS_OLD3   0/2395.095
STATS_OLD4   0/1692.25
SURVIVOR   0/495
SYSOPS_CORNER   0/3
SYSOP   0/84
TAGLINES   0/112
TEAMOS2   0/4530
TECH   0/2617
TEST.444   0/105
TRAPDOOR   0/19
TREK   0/755
TUB   0/290
UFO   0/40
UNIX   0/1316
USA_EURLINK   0/102
USR_MODEMS   0/1
VATICAN   0/2740
VIETNAM_VETS   0/14
VIRUS   0/378
VIRUS_INFO   0/201
VISUAL_BASIC   0/473
WHITEHOUSE   0/5187
WIN2000   0/101
WIN32   0/30
WIN95   0/4291
WIN95_OLD1   0/70272
WINDOWS   0/1517
WWB_SYSOP   0/419
WWB_TECH   0/810
ZCC-PUBLIC   0/1
ZEC   4

 
4DOS   0/134
ABORTION   0/7
ALASKA_CHAT   0/506
ALLFIX_FILE   0/1313
ALLFIX_FILE_OLD1   0/7997
ALT_DOS   0/152
AMATEUR_RADIO   0/1039
AMIGASALE   0/14
AMIGA   0/331
AMIGA_INT   0/1
AMIGA_PROG   0/20
AMIGA_SYSOP   0/26
ANIME   0/15
ARGUS   0/924
ASCII_ART   0/340
ASIAN_LINK   0/651
ASTRONOMY   0/417
AUDIO   0/92
AUTOMOBILE_RACING   0/105
BABYLON5   0/17862
BAG   135
BATPOWER   0/361
BBBS.ENGLISH   0/382
BBSLAW   0/109
BBS_ADS   0/5290
BBS_INTERNET   0/507
BIBLE   0/3563
BINKD   0/1119
BINKLEY   0/215
BLUEWAVE   0/2173
CABLE_MODEMS   0/25
CBM   0/46
CDRECORD   0/66
CDROM   0/20
CLASSIC_COMPUTER   0/378
COMICS   0/15
CONSPRCY   0/899
COOKING   41444
COOKING_OLD1   0/24719
COOKING_OLD2   0/40862
COOKING_OLD3   0/37489
COOKING_OLD4   31888/35496
COOKING_OLD5   9370
C_ECHO   0/189
C_PLUSPLUS   0/31
DIRTY_DOZEN   0/201
DOORGAMES   0/2285
DOS_INTERNET   0/196
duplikat   6102
ECHOLIST   0/18295
EC_SUPPORT   0/318
ELECTRONICS   0/359
ELEKTRONIK.GER   1534
ENET.LINGUISTIC   0/13
ENET.POLITICS   0/4
ENET.SOFT   0/11701
ENET.SYSOP   34296
ENET.TALKS   0/32
ENGLISH_TUTOR   0/2000
EVOLUTION   0/1335
FDECHO   0/217
FDN_ANNOUNCE   0/7068
FIDONEWS   25062
FIDONEWS_OLD1   0/49742
FIDONEWS_OLD2   0/35949
FIDONEWS_OLD3   0/30874
FIDONEWS_OLD4   0/37224
FIDO_SYSOP   12922
FIDO_UTIL   0/180
FILEFIND   0/209
FILEGATE   0/212
Möte HAM, 16660 texter
 lista första sista föregående nästa
Text 4347, 908 rader
Skriven 2011-02-24 23:31:25 av Amsat List (1:323/120.0)
Ärende: [keps]  orb11055.amsa
=============================
[keps]  orb11055.amsa

Return-Path: <keps-bounces@amsat.org>
X-Rcpt: craig.healy@chowda.com
X-UIDL: 1298607959.646

SB KEPS @ AMSAT  $ORB11055.O
Orbital Elements  11055.OSCAR

HR AMSAT ORBITAL ELEMENTS FOR OSCAR SATELLITES
FROM WA5QGD FORT WORTH,TX February 24, 2011
Send Subscribe/unsubscribe to KEPS at http://www.amsat.org/mailman/listinfo/kep
BID: ORB11055.O
TO ALL RADIO AMATEURS BT

Satellite: AO-07
Catalog number: 07530
Epoch time:      11055.62960593
Element set:      12
Inclination:      101.3949 deg
RA of node:       066.6080 deg
Eccentricity:    0.0011972
Arg of perigee:   139.4532 deg
Mean anomaly:     220.7428 deg
Mean motion:   12.53581365 rev/day
Decay rate:       -2.7e-07 rev/day^2
Epoch rev:           66008
Checksum:              282

Satellite: FO-29
Catalog number: 24278
Epoch time:      11054.90986410
Element set:    0556
Inclination:      098.5276 deg
RA of node:       214.3997 deg
Eccentricity:    0.0350564
Arg of perigee:   190.7667 deg
Mean anomaly:     168.5825 deg
Mean motion:   13.52957857 rev/day
Decay rate:        1.4e-07 rev/day^2
Epoch rev:           71714
Checksum:              352

Satellite: SO-33
Catalog number: 25509
Epoch time:      11054.66265538
Element set:    0911
Inclination:      031.4351 deg
RA of node:       166.3700 deg
Eccentricity:    0.0353905
Arg of perigee:   328.7396 deg
Mean anomaly:     029.2612 deg
Mean motion:   14.28368733 rev/day
Decay rate:       2.83e-06 rev/day^2
Epoch rev:           64403
Checksum:              300

Satellite: RS-22
Catalog number: 27939
Epoch time:      11055.62129387
Element set:      20
Inclination:      097.8595 deg
RA of node:       274.9080 deg
Eccentricity:    0.0013559
Arg of perigee:   346.2162 deg
Mean anomaly:     013.8662 deg
Mean motion:   14.63514972 rev/day
Decay rate:       1.44e-06 rev/day^2
Epoch rev:           39587
Checksum:              325

Satellite: VO-52
Catalog number: 28650
Epoch time:      11054.80044657
Element set:     726
Inclination:      097.6579 deg
RA of node:       102.9326 deg
Eccentricity:    0.0027133
Arg of perigee:   170.7824 deg
Mean anomaly:     189.3841 deg
Mean motion:   14.81916331 rev/day
Decay rate:        8.8e-07 rev/day^2
Epoch rev:           31395
Checksum:              318

Satellite: SO-67
Catalog number: 35870
Epoch time:      11055.79124630
Element set:     592
Inclination:      097.2969 deg
RA of node:       102.7657 deg
Eccentricity:    0.0001771
Arg of perigee:   320.0210 deg
Mean anomaly:     151.7572 deg
Mean motion:   15.21371028 rev/day
Decay rate:      1.460e-05 rev/day^2
Epoch rev:            7985
Checksum:              297

Satellite: HO-68
Catalog number: 36122
Epoch time:      11055.67095831
Element set:     142
Inclination:      100.4305 deg
RA of node:       118.1270 deg
Eccentricity:    0.0008044
Arg of perigee:   120.1606 deg
Mean anomaly:     240.0312 deg
Mean motion:   13.16284259 rev/day
Decay rate:       -4.5e-07 rev/day^2
Epoch rev:            5743
Checksum:              244

/EX
SB KEPS @ AMSAT  $ORB11055.D
Orbital Elements  11055.MICROS

HR AMSAT ORBITAL ELEMENTS FOR THE MICROSATS
FROM WA5QGD FORT WORTH,TX February 24, 2011
Send Subscribe/unsubscribe to KEPS at http://www.amsat.org/mailman/listinfo/kep
BID: ORB11055.D
TO ALL RADIO AMATEURS BT

Satellite: UO-11
Catalog number: 14781
Epoch time:      11054.75480058
Element set:     478
Inclination:      098.0193 deg
RA of node:       111.7452 deg
Eccentricity:    0.0009692
Arg of perigee:   140.6678 deg
Mean anomaly:     219.5209 deg
Mean motion:   14.79894199 rev/day
Decay rate:       1.76e-06 rev/day^2
Epoch rev:           44901
Checksum:              330

Satellite: AO-16
Catalog number: 20439
Epoch time:      11054.82143116
Element set:    0127
Inclination:      098.3700 deg
RA of node:       008.3114 deg
Eccentricity:    0.0011356
Arg of perigee:   135.9221 deg
Mean anomaly:     224.2874 deg
Mean motion:   14.31896785 rev/day
Decay rate:        5.0e-07 rev/day^2
Epoch rev:           10139
Checksum:              266

Satellite: LO-19
Catalog number: 20442
Epoch time:      11055.75717457
Element set:      34
Inclination:      098.3333 deg
RA of node:       014.0039 deg
Eccentricity:    0.0012451
Arg of perigee:   127.2880 deg
Mean anomaly:     232.9449 deg
Mean motion:   14.32124923 rev/day
Decay rate:       1.30e-06 rev/day^2
Epoch rev:           10170
Checksum:              258

Satellite: AO-27
Catalog number: 22825
Epoch time:      11055.79654145
Element set:     756
Inclination:      098.5188 deg
RA of node:       002.6381 deg
Eccentricity:    0.0007494
Arg of perigee:   246.1450 deg
Mean anomaly:     113.8957 deg
Mean motion:   14.29328140 rev/day
Decay rate:        7.9e-07 rev/day^2
Epoch rev:           90813
Checksum:              320

Satellite: IO-26
Catalog number: 22826
Epoch time:      11054.97660765
Element set:    0495
Inclination:      098.5133 deg
RA of node:       002.3485 deg
Eccentricity:    0.0008103
Arg of perigee:   242.8590 deg
Mean anomaly:     117.1767 deg
Mean motion:   14.29587341 rev/day
Decay rate:        3.2e-07 rev/day^2
Epoch rev:           90813
Checksum:              307

Satellite: GO-32
Catalog number: 25397
Epoch time:      11055.84729987
Element set:     414
Inclination:      098.3224 deg
RA of node:       054.4499 deg
Eccentricity:    0.0000499
Arg of perigee:   201.9733 deg
Mean anomaly:     158.1425 deg
Mean motion:   14.23196263 rev/day
Decay rate:      -1.54e-06 rev/day^2
Epoch rev:           65598
Checksum:              333

